Flag for U.S.A. Weather past 2 weeks in French Lick, Indiana, U.S.A.

52 °F


Feels Like: 48 °F
Forecast: 52 / 76 °F
Wind: 10 mph from Northeast

Location: Huntingburg Airport

Current Time: Oct 3, 2015 at 11:24:31 PM

Latest Report: Oct 3, 2015 at 10:55 PM

Visibility: 10 mi

Pressure: 29.99 "Hg

Humidity: 82%

Dew point: 46 °F

Location of French LickLocation

Historic Weather in French Lick — Graph


French Lick temperature yesterday

Maximum temperature yesterday: 63 °F (at 12:35 PM)
Minimum temperature yesterday: 52 °F (at 5:55 AM)
Average temperature yesterday: 56 °F

Past Weeks' High & Low Weather Summary

High86 °F (Sep 24, 4:55 PM)94% (Sep 21, 3:55 AM)30.26 "Hg (Sep 21, 3:55 AM)
Low46 °F (Sep 21, 7:15 AM)26% (Sep 22, 4:35 PM)29.86 "Hg (Sep 19, 4:35 AM)
Average65 °F70%30.07 "Hg
* Reported Sep 18 10:15 PM — Oct 3 10:15 PM, French Lick, Weather by CustomWeather, © 2015

Note: Actual official high and low records may vary slightly from our data, if they occured in-between our weather recording intervals... More about our weather records


French Lick weather history for previous 24 hours

Time TempWeatherWind HumidityBarometerVisibility
10:15 PM
Sat, Oct 3
50 °FOvercast.10 mph82%29.99 "Hg10 mi
9:55 PM50 °FOvercast.12 mph82%29.99 "Hg10 mi
9:35 PM50 °FOvercast.13 mph82%29.98 "Hg10 mi
9:15 PM50 °FOvercast.9 mph82%29.98 "Hg10 mi
8:55 PM50 °FOvercast.15 mph82%29.96 "Hg10 mi
8:35 PM50 °FOvercast.13 mph82%29.97 "Hg10 mi
8:15 PM50 °FOvercast.10 mph82%29.97 "Hg10 mi
7:55 PM50 °FOvercast.10 mph82%29.97 "Hg10 mi
7:35 PM50 °FOvercast.10 mph82%29.98 "Hg10 mi
7:15 PM50 °FOvercast.12 mph82%29.98 "Hg10 mi
6:55 PM50 °FOvercast.8 mph82%29.98 "Hg10 mi
6:35 PM48 °FOvercast.12 mph87%29.98 "Hg10 mi
5:15 PM50 °FOvercast.13 mph82%29.98 "Hg10 mi
4:55 PM50 °FOvercast.10 mph82%29.97 "Hg10 mi
4:35 PM50 °FOvercast.9 mph82%29.96 "Hg10 mi
4:15 PM50 °FOvercast.14 mph82%29.96 "Hg10 mi
3:55 PM50 °FOvercast.13 mph82%29.95 "Hg10 mi
3:35 PM52 °FOvercast.13 mph77%29.96 "Hg10 mi
3:15 PM52 °FOvercast.17 mph72%29.96 "Hg10 mi
2:55 PM52 °FOvercast.15 mph77%29.96 "Hg10 mi
2:35 PM52 °FOvercast.14 mph77%29.96 "Hg10 mi
2:15 PM54 °FOvercast.14 mph72%29.95 "Hg10 mi
1:55 PM52 °FOvercast.16 mph77%29.94 "Hg10 mi
1:35 PM52 °FOvercast.12 mph77%29.96 "Hg10 mi
1:15 PM50 °FOvercast.13 mph82%29.97 "Hg10 mi
12:55 PM50 °FOvercast.14 mph76%29.97 "Hg10 mi
12:35 PM50 °FOvercast.12 mph82%29.98 "Hg10 mi
12:15 PM50 °FOvercast.15 mph82%29.98 "Hg10 mi
11:55 AM50 °FOvercast.10 mph82%29.98 "Hg10 mi
11:35 AM48 °FOvercast.14 mph82%29.98 "Hg10 mi
11:15 AM48 °FOvercast.13 mph82%29.98 "Hg10 mi
10:55 AM48 °FOvercast.15 mph82%29.98 "Hg10 mi
10:35 AM48 °FOvercast.13 mph82%29.98 "Hg10 mi
10:15 AM48 °FOvercast.13 mph82%29.97 "Hg10 mi
9:55 AM48 °FOvercast.15 mph82%29.97 "Hg10 mi
9:35 AM48 °FOvercast.14 mph82%29.98 "Hg10 mi
9:15 AM48 °FOvercast.14 mph82%29.98 "Hg10 mi
8:55 AM48 °FOvercast.12 mph82%29.98 "Hg10 mi
8:35 AM48 °FOvercast.15 mph82%29.98 "Hg10 mi
8:15 AM48 °FOvercast.12 mph82%29.98 "Hg10 mi
7:55 AM46 °FOvercast.13 mph87%29.98 "Hg10 mi
7:35 AM48 °FMostly cloudy.13 mph82%29.98 "Hg10 mi
7:15 AM48 °FMostly cloudy.14 mph82%29.98 "Hg10 mi
6:55 AM48 °FMostly cloudy.12 mph87%29.99 "Hg10 mi
6:35 AM48 °FMostly cloudy.10 mph87%29.98 "Hg10 mi
6:15 AM48 °FMostly cloudy.12 mph87%29.98 "Hg9 mi
5:55 AM48 °FMostly cloudy.13 mph87%29.98 "Hg7 mi
4:35 AM48 °FOvercast.12 mph87%29.99 "Hg5 mi
4:15 AM48 °FMostly cloudy.14 mph87%29.99 "Hg7 mi
3:55 AM48 °FMostly cloudy.12 mph87%30.00 "Hg9 mi
Weather by CustomWeather, © 2015

See weather overviewHow to use our weather pages